Powrót do katalogu

FENGYUN 1C DEB

AktywnySSO
NORAD 30252·DEBRIS·🇨🇳 China

Wystrzelony May 10, 1999 z Taiyuan Satellite Launch Center

Loading…

Następne Przeloty (najbliższe 24 godziny)

TLE

ŚwieżeSource: Space-Track

Epoka: Sep 14, 2026, 06:21 UTC

1 30252U 99025XM  26257.26496851  .00000486  00000-0  29333-3 0  9991
2 30252  98.7346 269.3888 0066357 180.8001 239.7183 14.10095153  8460

Śledź FENGYUN 1C DEB w czasie rzeczywistym z AllMySat

Download on the App Store